Regional Weather Roundup
Issued by NWS State College, PA

Home | Current Version | Previous Version | Text Only | Print | Product List | Glossary On
Versions: 1 2 3 4 5 6 7 8 9 10 11 12 13 14 15 16 17 18 19 20 21 22 23 24 25 26 27 28 29 30 31 32 33 34 35 36 37 38 39 40 41 42 43 44 45 46 47 48 49 50
000
ASUS41 KCTP 250610
RWRCTP

REGIONAL WEATHER ROUNDUP
NATIONAL WEATHER SERVICE STATE COLLEGE PA
200 AM EDT FRI JUL 25 2014

Note: "fair" indicates few or no clouds below 12,000 feet with no
significant weather and/or obstructions to visibility.

* = STATION THAT DOES NOT REPORT PRECIPITATION /E.G. RAIN...SNOW...ETC/
    THUNDER OR FOG.

PAZ002>004-007>009-013>016-020>023-029>032-250700-
WESTERN PENNSYLVANIA

CITY           SKY/WX    TMP DP  RH WIND       PRES   REMARKS
ERIE           CLEAR     56  49  77 S6        30.06F
MEADVILLE      CLEAR     54  47  77 CALM      30.07F
FRANKLIN*      CLEAR     50  45  81 CALM      30.09F
NEW CASTLE       N/A     49  48  96 CALM      30.08F
BEAVER COUNTY  NOT AVBL
BUTLER*        CLEAR     52  46  82 CALM      30.08F
PITTSBURGH INT CLEAR     58  51  78 CALM      30.07F
PITTSBURGH     CLEAR     59  48  67 N3        30.06F
INDIANA*       PTCLDY    55  54  94 CALM      30.10F
LATROBE        CLEAR     55  55 100 CALM      30.07F
WASHINGTON CO* CLEAR     52  48  87 CALM      30.08S
$$

PAZ004>006-010>012-017>019-024>028-033>037-041-042-045-046-049>053-250700-
CENTRAL PENNSYLVANIA

CITY           SKY/WX    TMP DP  RH WIND       PRES   REMARKS
BRADFORD       CLEAR     45  42  89 CALM      30.08F
DUBOIS         CLEAR     53  49  86 CALM      30.07F
CLEARFIELD     CLEAR     51  50  96 N5        30.07F
JOHNSTOWN      CLEAR     55  49  80 NE6       30.07F
ALTOONA        CLEAR     55  53  93 CALM      30.07R
STATE COLLEGE  CLEAR     57  49  74 CALM      30.05F
WILLIAMSPORT   CLEAR     55  49  80 CALM      30.04R
SELINSGROVE    CLEAR     52  50  93 CALM      30.04R
FT INDIANTOWN  CLEAR     60  51  72 E5        30.01R
CAPITAL CITY   CLEAR     67  49  52 N7        30.02R
HARRISBURG     CLEAR     61  51  70 NW5       30.01R
YORK           CLEAR     56  54  93 CALM      30.01R
$$

PAZ038>040-043-044-047-048-054-055-060>062-067>071-250700-
EASTERN PENNSYLVANIA

CITY           SKY/WX    TMP DP  RH WIND       PRES   REMARKS
SCRANTON       CLEAR     54  48  80 E3        30.02S
MOUNT POCONO   CLEAR     54  32  43 N8        30.01S
ALLENTOWN      CLEAR     62  50  64 CALM      29.98R
QUAKERTOWN*    CLEAR     59  54  82 CALM      29.99R
READING        CLEAR     62  50  64 NW5       29.99R
LANCASTER      CLEAR     59  52  77 NW3       30.00R
COATESVILLE    CLEAR     63  50  63 NW6       30.00R
POTTSTOWN      CLEAR     62  51  67 W3        29.99R
BLUE BELL      PTCLDY    63  55  77 CALM      29.96R
DOYLESTOWN     PTCLDY    62  53  72 N6        29.96R
WILLOW GROVE   NOT AVBL
NORTH PHILA    PTCLDY    67  52  58 N8        29.97R
PHILADELPHIA   PTCLDY    69  52  54 N7        29.96R
$$


USA.gov is the U.S. government's official web portal to all federal, state and local government web resources and services.